Regional Weather Roundup
Issued by NWS

Home | Current Version | Previous Version | Text Only | Print | Product List | Glossary Off
Versions: 1 2 3 4 5 6 7 8 9 10 11 12 13 14 15 16 17 18 19 20 21 22 23 24 25 26 27 28 29 30 31 32 33 34 35 36 37 38 39 40 41 42 43 44 45 46 47 48 49 50

000
ASUS45 KBOU 250607
RWRCO

WEATHER ROUNDUP FOR COLORADO
NATIONAL WEATHER SERVICE DENVER/BOULDER CO
1200 AM MDT TUE JUL 25 2017

NOTE: "FAIR" INDICATES FEW OR NO CLOUDS BELOW 12000 FEET WITH NO
SIGNIFICANT WEATHER AND/OR OBSTRUCTIONS TO VISIBILITY.

COZ001>005-013-030-031-250700-
...NORTHWEST COLORADO...

CITY           SKY/WX    TMP DP  RH WIND       PRES   REMARKS
CRAIG          FAIR      63  51  65 CALM      30.15R
HAYDEN         FAIR      66  41  39 E6        30.18R
MEEKER         CLOUDY    76  48  37 SE5       30.20R
RABBIT EARS PA CLOUDY    59  41  51 SW8       30.51F
STEAMBOAT SPGS MOCLDY    68  44  42 NE7       30.20R
WALDEN         MOCLDY    63  37  39 CALM      30.31F
$$

COZ006>008-011-250700-
...WEST CENTRAL VALLEYS...

CITY           SKY/WX    TMP DP  RH WIND       PRES   REMARKS
GRAND JUNCTION LGT RAIN  70  61  73 NE17G23   30.14R
MONTROSE       LGT RAIN  68  57  68 SW8       30.22R
EAGLE          MOCLDY    66  56  70 E6        30.26R
RIFLE          MOCLDY    70  57  63 S3        30.20R
DELTA          CLOUDY    72  56  57 E8G17     30.19R
NUCLA          DRIZZLE   63  59  88 E5        30.29R
$$

COZ017>023-064>068-250700-
...SOUTHWEST COLORADO...

CITY           SKY/WX    TMP DP  RH WIND       PRES   REMARKS
DURANGO        LGT RAIN  61  56  83 NE3       30.28S
CORTEZ         MOCLDY    64  61  90 CALM      30.22F
PAGOSA SPRINGS LGT RAIN  62  54  75 NW8       30.38S
TELLURIDE      LGT RAIN  56  53  88 CALM      30.48R
WOLF CREEK PAS NOT AVBL
$$

COZ009-010-012-014-032>034-037-058>063-250700-
...CENTRAL COLORADO...

CITY           SKY/WX    TMP DP  RH WIND       PRES   REMARKS
ASPEN          FAIR      64  49  57 CALM      30.32S
BUENA VISTA    FAIR      63  47  56 SW3       30.33S
COPPER MTN     FAIR      55  39  54 S14       30.65S
BERTHOUD PASS  FAIR      48  34  57 SW8G17    30.68F
COTTONWOOD PAS FAIR      63  41  45 SW9       30.48S
GUNNISON       FAIR      63  49  60 CALM      30.35R
KREMMLING      FAIR      73  45  35 S5        30.28R
LEADVILLE      FAIR      54  41  61 NE3       30.47R
MONARCH PASS   MOCLDY    50  41  71 SW17      30.75S
SALIDA         FAIR      67  51  57 W8        30.37S
SUNLIGHT       CLOUDY    50  41  71 S8G20     30.59R
WILKERSON PASS CLOUDY    54  37  54 W7        30.62R
$$

COZ069>075-250700-
...SAN LUIS VALLEY/SANGRE DE CRISTO MOUNTAINS...

CITY           SKY/WX    TMP DP  RH WIND       PRES   REMARKS
ALAMOSA        FAIR      60  53  77 E6        30.31R
DEL NORTE      CLOUDY    67  47  49 W16       30.35S
LA VETA PASS   NOT AVBL
SAGUACHE         N/A    N/A N/A N/A MISG        N/A
$$

COZ035-036-038>040-250700-
...NORTHERN COLORADO FRONT RANGE...

CITY           SKY/WX    TMP DP  RH WIND       PRES   REMARKS
DENVER INTL AP MOCLDY    70  46  42 S14       30.06S
DMNS CITY PARK   N/A     74  46  36 SE1G9     30.06R
AURORA         MOCLDY    72  46  39 SE10      30.10R
FRONT RANGE AP FAIR      73  45  35 S12       30.09S
ERIE MUNI ARPT FAIR      71  45  38 S3        30.03S
BOULDER MUN AP FAIR      81  39  22 SW10      30.04S
CENTENNIAL     FAIR      72  45  37 SE12      30.11S
BROOMFIELD     FAIR      73  43  33 S3        30.08S
FORT COLLINS   FAIR      75  49  39 N7        30.02S
LONGMONT       FAIR      75  46  35 S5        30.04R
$$

COZ041-046-047-076>085-087-088-250700-
...PIKES PEAK/PALMER DIVIDE AND SOUTHERN FOOTHILLS...

CITY           SKY/WX    TMP DP  RH WIND       PRES   REMARKS
COLO. SPRINGS  FAIR      71  55  56 E6        30.18R
A. F. ACADEMY  FAIR      60  47  61 N7        30.19R
SCHRIEVER AFB  FAIR      68  52  56 E7        30.18R
CHEYENNE MTN   FAIR      70  44  38 NW5       30.17S
ELLICOTT       NOT AVBL
FALCON           N/A     65  51  60 CALM      30.24R
FORT CARSON    MOCLDY    67  50  53 N6        30.13R
LIMON          FAIR      69  59  70 SE9       30.13R
MONUMENT HILL  FAIR      59  50  72 S7        30.25R
CANON CITY     CLEAR     75  54  46 W16       30.09R
WALSENBURG     FAIR      70  50  49 SW7       30.16F
TRINIDAD       FAIR      74  50  42 W8        30.15F
$$

COZ042>045-048>051-090-091-250700-
...NORTHEAST COLORADO...

CITY           SKY/WX    TMP DP  RH WIND       PRES   REMARKS
GREELEY ARPT   FAIR      72  52  49 S7        30.01R
AKRON          FAIR      77  58  51 S17       30.06R
BURLINGTON     FAIR      73  62  68 S14       30.08R
WRAY           NOT AVBL
YUMA           FAIR      73  54  49 S13       30.04S
STERLING       FAIR      79  59  50 S12G17    29.99S
HOLYOKE        FAIR      81  61  50 S17       30.00F
FORT MORGAN    FAIR      74  51  44 S8        30.04R
$$

COZ086-089-092>099-250700-
...SOUTHEAST COLORADO...

CITY           SKY/WX    TMP DP  RH WIND       PRES   REMARKS
PUEBLO         FAIR      71  49  45 W6        30.03R
LA JUNTA       FAIR      81  59  47 S12       30.02S
LAMAR          FAIR      78  61  55 S16       30.01R
SPRINGFIELD      N/A     70  61  73 S14       30.10S
$$



USA.gov is the U.S. government's official web portal to all federal, state and local government web resources and services.